Dewpoint
30 38 42 43 43 43 44 43 44 43 41 40 38 37 36 35 35 33 33 32 32 32 32 31 31 31 32
30 37 41 42 41 42 42 41 41 42 40 39 38 37 36 35 34 33 32 31 31 31 31 29 30 30 31
30 33 37 40 39 38 38 38 38 41 40 39 38 36 35 34 33 32 31 30 30 30 29 28 29 30 30
30 33 37 37 38 37 36 34 35 37 38 38 37 36 35 34 32 31 30 29 29 29 28 28 28 29 29
30 30 34 36 37 36 35 31 32 33 33 35 36 35 34 33 33 31 30 29 29 28 27 27 27 28 27
29 29 32 35 37 34 29 31 31 29 31 31 32 33 31 31 34 32 30 29 29 28 27 27 26 27 25
28 29 29 32 35 32 30 28 27 24 29 29 29 31 31 28 32 32 32 29 28 28 27 25 25 25 24
29 29 28 31 33 31 30 24 23 25 26 25 24 27 26 26 29 31 33 30 28 27 25 23 24 25 23
32 32 31 32 32 28 26 25 21 21 24 21 21 22 21 21 25 31 32 31 30 28 23 22 22 24 21
33 34 34 33 33 29 26 26 21 19 22 19 20 20 17 22 22 27 28 30 29 26 21 21 21 22 20
32 34 33 33 32 28 27 27 21 19 22 22 21 22 22 20 23 23 26 26 21 19 20 20 21 21 21
32 32 31 31 29 26 26 26 25 22 25 23 21 22 21 19 18 23 22 21 19 17 18 19 20 21 21
31 31 31 30 27 27 27 27 27 27 26 25 22 25 23 23 23 20 20 20 19 18 17 17 18 19 18
31 29 28 28 26 26 26 25 24 25 27 28 27 24 23 24 22 21 22 16 20 19 18 18 19 19 18
29 28 28 27 26 26 25 24 22 23 24 25 26 26 26 24 20 20 18 18 19 18 18 16 16 17 17
29 28 27 27 26 26 26 24 23 23 23 24 22 20 20 21 23 19 19 18 18 17 18 14 13 15 17
29 28 28 27 27 26 26 25 24 23 23 24 22 25 24 23 18 22 17 16 15 14 16 16 15 17 18
Wind_Speed
4 10 15 18 15 15 16 18 16 18 16 14 12 11 9 8 7 5 5 5 5 6 7 10 12 14 15
7 11 12 17 18 18 14 13 17 17 17 15 13 11 10 8 7 5 5 3 4 5 7 9 12 13 15
11 6 5 14 12 8 12 11 10 15 16 15 14 12 11 9 7 6 4 2 2 4 5 8 11 13 14
13 16 15 7 11 18 15 5 11 8 10 12 13 13 11 10 8 6 4 2 1 2 4 8 11 12 13
17 11 15 16 25 12 14 9 6 6 9 9 10 10 9 11 9 8 6 5 1 2 5 7 9 11 12
16 21 23 22 19 19 13 13 11 9 12 14 8 11 10 8 10 10 9 6 2 2 4 6 8 10 11
26 24 20 28 24 22 20 13 11 7 10 15 7 12 11 10 12 12 10 7 4 1 3 5 7 8 9
21 19 13 23 25 17 18 11 7 5 7 10 8 11 8 11 12 13 12 9 6 2 4 5 6 7 7
13 18 18 25 22 20 19 20 9 6 12 7 7 7 5 6 9 14 11 11 8 5 4 5 6 5 6
14 16 20 23 28 23 23 24 12 7 12 12 8 7 5 2 7 5 5 11 8 4 2 4 7 4 6
17 16 16 18 17 14 18 19 18 4 11 11 8 8 4 5 3 5 6 4 4 2 2 5 7 6 6
19 17 19 17 16 16 14 12 5 3 19 9 8 11 8 5 5 5 4 4 4 2 2 5 5 5 6
21 17 15 13 17 14 14 16 14 11 10 5 11 12 8 9 7 7 6 5 4 2 2 3 3 1 3
20 15 16 18 16 12 13 16 11 8 9 6 11 12 8 7 6 7 5 5 5 1 3 4 2 1 2
20 20 19 19 16 15 14 15 11 14 9 8 11 13 11 8 5 7 8 4 4 2 2 4 2 2 4
19 21 22 22 21 16 15 14 17 15 13 8 11 9 5 8 7 9 5 5 3 1 1 2 3 3 6
23 21 21 19 24 21 18 17 16 14 13 10 11 8 7 7 2 3 6 4 3 0 1 2 3 5 6
Wind_Direction
129 169 170 171 175 171 169 162 160 160 167 171 164 162 156 144 130 117 95 72 44 29 24 18 14 12 9
151 158 179 178 172 172 170 167 165 169 174 176 174 173 167 156 145 131 110 93 51 27 22 17 14 10 9
160 154 150 165 164 154 165 166 172 171 179 182 184 184 180 170 165 149 142 120 56 31 18 14 14 11 7
159 168 171 166 167 172 176 169 176 181 181 183 193 192 188 187 182 169 164 164 352 10 15 13 14 9 8
159 164 171 175 186 175 180 168 181 172 176 186 189 188 193 197 186 185 186 193 220 354 3 9 10 8 9
171 180 188 183 179 179 160 170 196 198 183 201 187 193 192 194 192 200 200 200 195 335 355 0 4 3 4
178 182 177 187 175 174 183 185 187 174 165 202 188 209 207 210 213 211 205 203 199 290 342 336 352 349 358
183 181 177 175 182 185 174 135 97 132 156 195 184 209 206 222 219 212 205 207 203 255 311 327 333 346 349
160 159 161 166 163 140 162 166 178 184 195 165 182 168 184 211 214 203 209 213 216 250 291 323 329 352 345
150 154 161 168 169 176 167 178 166 172 201 179 158 151 183 204 188 196 194 214 212 227 295 319 329 350 341
157 155 157 166 173 169 172 172 174 180 183 159 159 164 114 148 156 181 182 164 150 158 342 335 333 339 337
161 164 168 171 166 161 155 141 124 178 169 156 150 168 143 140 163 175 170 166 164 193 318 326 334 343 333
177 179 175 151 133 124 117 111 92 91 128 155 157 153 146 147 161 172 153 196 168 184 282 291 305 320 329
174 146 131 145 156 148 142 138 124 101 64 106 142 139 134 128 139 153 161 168 166 187 277 282 306 238 305
157 157 154 156 160 160 149 150 150 152 139 89 85 89 84 135 130 154 159 142 149 177 209 302 290 273 330
161 164 164 166 161 164 158 163 152 156 150 146 139 107 78 57 60 150 136 157 164 163 176 237 268 282 326
167 167 162 161 161 163 162 154 152 152 155 147 157 144 158 173 118 80 161 160 159 220 258 251 280 306 312